Regional Weather Roundup
Issued by NWS Sioux Falls, SD

Home | Current Version | Previous Version | Text Only | Print | Product List | Glossary Off
Versions: 1 2 3 4 5 6 7 8 9 10 11 12 13 14 15 16 17 18 19 20 21 22 23 24 25 26 27 28 29 30 31 32 33 34 35 36 37 38 39 40 41 42 43 44 45 46 47 48 49 50

000
ASUS43 KFSD 310102
RWRFSD

WEATHER ROUNDUP FOR SE SOUTH DAKOTA/SW MINNESOTA/NW IOWA
NATIONAL WEATHER SERVICE SIOUX FALLS SD
800 PM CDT MON MAY 30 2016

NOTE: "FAIR" INDICATES FEW OR NO CLOUDS BELOW 12,000 FEET WITH NO
SIGNIFICANT WEATHER AND OR OBSTRUCTIONS TO VISIBILITY.


SDZ038>040-050-052>070-310200-
SOUTHEAST SOUTH DAKOTA

CITY           SKY/WX    TMP DP  RH WIND       PRES   REMARKS
BROOKINGS      CLOUDY    77  58  51 S7        29.79R
CHAMBERLAIN    NOT AVBL
HURON          CLOUDY    76  61  59 S8        29.72F
MADISON        FAIR      75  61  60 S7        29.79S
MITCHELL       CLOUDY    78  63  59 SE8       29.75S
SIOUX FALLS    PTCLDY    75  57  53 S7        29.77S
WINNER         LGT RAIN  73  46  38 S21G33    29.76R
YANKTON        CLEAR     81  55  41 S9        29.75S
$$

MNZ071-072-080-081-089-090-097-098-310200-
SOUTHWEST MINNESOTA

CITY           SKY/WX    TMP DP  RH WIND       PRES   REMARKS
FAIRMONT       CLEAR     77  55  47 SE12      29.85S
JACKSON        CLEAR     81  52  36 SE9       29.85R
LUVERNE        CLEAR     79  50  36 S8        29.80S
MARSHALL       CLEAR     81  55  40 S9        29.80R
MONTEVIDEO     PTCLDY    81  54  39 S14       29.81S
PIPESTONE      CLOUDY    79  52  38 S8        29.81F
REDWOOD FALLS  CLEAR     81  55  40 SE14      29.80S
TRACY          CLEAR     81  53  37 S12       29.82R
WINDOM         CLEAR     79  54  41 CALM      29.83S
WORTHINGTON    CLEAR     79  56  45 S10       29.84R
$$

IAZ001>003-012>014-020>022-031-032-NEZ013-014-SDZ071-310200-
NORTHWEST IOWA

CITY           SKY/WX    TMP DP  RH WIND       PRES   REMARKS
ESTHERVILLE    CLEAR     76  62  62 SE9       29.84R
SIOUX CITY     MOCLDY    76  60  57 SE18G31   29.83R
SPENCER        CLEAR     80  56  43 S5        29.83S
STORM LAKE     MOCLDY    73  57  56 SW22G31   29.87R
$$

ABBREVIATIONS USED IN REMARKS
   TC - TEMPERATURE IN CELSIUS
  WCI - WIND CHILL INDEX
   HX - HEAT INDEX
  VSB - VISIBILITY





USA.gov is the U.S. government's official web portal to all federal, state and local government web resources and services.